Guthrie, OK

5:24 PM CST on January 16, 2017 (GMT -0600)
Guthrie Municipal

Weather History for KGOK - January, 2013

Change the Weather History Date:

Sunday, January 6, 2013

  Actual Average Record
Temperature  
Mean Temperature 36 °F -  
Max Temperature 52 °F 47 °F 75 °F (2008)
Min Temperature 21 °F 23 °F 0 °F (2014)
Degree Days  
Heating Degree Days 28    
Moisture  
Dew Point 21 °F    
Average Humidity 59    
Maximum Humidity 85    
Minimum Humidity 26    
Precipitation  
Precipitation 0.00 in - - ()
Sea Level Pressure  
Sea Level Pressure 30.39 in    
Wind  
Wind Speed 2 mph (West)    
Max Wind Speed 7 mph    
Max Gust Speed -    
Visibility 10 miles    
Events      
Averages and records for this station are not official NWS values.
T = Trace of Precipitation, MM = Missing Value Source: NWS Daily Summary

Daily Weather History Graph

Daily Weather History Graph

Search for Another Location

Airport or City:

Trip Planner

Search our weather history database for the weather conditions in past years. The results will help you decide how hot, cold, wet, or windy it might be!

Date:

Astronomy

Jan. 06, 2013 Rise Set
Actual Time 7:40 AM CST 5:31 PM CST
Civil Twilight 7:12 AM CST 5:59 PM CST
Nautical Twilight 6:40 AM CST 6:31 PM CST
Astronomical Twilight 6:09 AM CST 7:02 PM CST
Moon 2:00 AM CST (1/6) 12:55 PM CST (1/6)
Length of Visible Light 10h 47m
Length of Day
9h 50m
Waning Crescent, 33% of the Moon is Illuminated
Jan 6
Waning Crescent
Jan 11
New
Jan 18
First Quarter
Jan 26
Full
Feb 3
Last Quarter

Hourly Weather History & Observations

Time (CST) Temp. Windchill Dew Point Humidity Pressure Visibility Wind Dir Wind Speed Gust Speed Precip Events Conditions
12:53 AM 28.9 °F 25.2 °F 21.9 °F 75% 30.35 in 10.0 mi WNW 3.5 mph - N/A   Clear
1:53 AM 27.0 °F - 21.9 °F 81% 30.37 in 10.0 mi Calm Calm - N/A   Clear
2:53 AM 28.0 °F 24.2 °F 21.9 °F 78% 30.37 in 10.0 mi NW 3.5 mph - N/A   Clear
3:53 AM 30.0 °F 26.5 °F 23.0 °F 75% 30.38 in 10.0 mi North 3.5 mph - N/A   Clear
4:53 AM 28.0 °F 24.2 °F 21.9 °F 78% 30.38 in 10.0 mi WNW 3.5 mph - N/A   Clear
5:53 AM 26.1 °F - 21.0 °F 81% 30.39 in 10.0 mi Calm Calm - N/A   Clear
6:53 AM 23.0 °F - 19.0 °F 85% 30.42 in 9.0 mi Calm Calm - N/A   Clear
7:53 AM 21.9 °F - 18.0 °F 85% 30.44 in 8.0 mi Calm Calm - N/A   Clear
8:53 AM 28.9 °F - 24.1 °F 82% 30.45 in 10.0 mi Calm Calm - N/A   Clear
9:53 AM 34.0 °F - 26.1 °F 73% 30.47 in 10.0 mi Calm Calm - N/A   Clear
10:53 AM 41.0 °F 37.1 °F 24.1 °F 51% 30.47 in 10.0 mi North 5.8 mph - N/A   Clear
11:53 AM 45.0 °F 41.8 °F 21.0 °F 39% 30.45 in 10.0 mi NNE 5.8 mph - N/A   Clear
12:53 PM 46.9 °F - 21.9 °F 37% 30.41 in 10.0 mi West 4.6 mph - N/A   Clear
1:53 PM 50.0 °F - 21.0 °F 32% 30.38 in 10.0 mi NNE 4.6 mph - N/A   Clear
2:53 PM 51.1 °F - 19.9 °F 29% 30.37 in 10.0 mi Calm Calm - N/A   Clear
3:53 PM 51.1 °F - 18.0 °F 27% 30.35 in 10.0 mi Calm Calm - N/A   Clear
4:53 PM 52.0 °F - 18.0 °F 26% 30.35 in 10.0 mi Calm Calm - N/A   Clear
5:53 PM 43.0 °F - 19.9 °F 40% 30.35 in 10.0 mi Calm Calm - N/A   Clear
6:53 PM 35.1 °F - 19.9 °F 54% 30.37 in 10.0 mi Calm Calm - N/A   Clear
7:53 PM 33.1 °F 28.7 °F 19.9 °F 59% 30.37 in 10.0 mi SSE 4.6 mph - N/A   Clear
8:53 PM 33.1 °F 27.7 °F 19.9 °F 59% 30.36 in 10.0 mi SSE 5.8 mph - N/A   Clear
9:53 PM 32.0 °F 26.4 °F 19.9 °F 61% 30.36 in 10.0 mi South 5.8 mph - N/A   Clear
10:53 PM 34.0 °F 29.8 °F 19.9 °F 56% 30.35 in 10.0 mi South 4.6 mph - N/A   Clear
11:53 PM 35.1 °F 29.3 °F 19.9 °F 54% 30.35 in 10.0 mi South 6.9 mph - N/A   Clear